Location: downtown San Diego
(32.7310°N, 117.1990°W)
Time: 11:48:25
(UTC-07:00)

Nadezhda 2 Rocket - Pass Details

Date: 14 June 2018
Orbit: 949 x 1010 km, 83.0° (Epoch: 15 October)

Event Time Altitude Azimuth Distance (km) Brightness Sun altitude
Rises 22:24:14 0° 356° (N) 3,709 8.4 -24.1°
Reaches altitude 10° 22:26:48 10° 358° (N) 2,748 7.6 -24.5°
Maximum altitude 22:33:05 76° 84° (E) 1,003 4.4 -25.2°
Enters shadow 22:34:14 60° 149° (SSE) 1,103 4.4 -25.4°
